TimeEEST,TemperatureF,Dew PointF,Humidity,Sea Level PressureIn,VisibilityMPH,Wind Direction,Wind SpeedMPH,Gust SpeedMPH,PrecipitationIn,Events,Conditions,WindDirDegrees,DateUTC
12:20 AM,30.2,26.6,86,30.39,-9999.0,NE,3.5,-,N/A,,Clear,40,2013-10-07 21:20:00
12:50 AM,30.2,26.6,86,30.39,-9999.0,NE,3.5,-,N/A,,Clear,40,2013-10-07 21:50:00
1:20 AM,32.0,28.4,87,30.39,-9999.0,NE,2.3,-,N/A,,Clear,50,2013-10-07 22:20:00
1:50 AM,28.4,24.8,86,30.39,-9999.0,NNE,2.3,-,N/A,,Clear,30,2013-10-07 22:50:00
2:20 AM,28.4,26.6,93,30.39,-9999.0,NNE,2.3,-,N/A,,Clear,30,2013-10-07 23:20:00
2:50 AM,28.4,26.6,93,30.39,-9999.0,NE,2.3,-,N/A,,Clear,50,2013-10-07 23:50:00
3:00 AM,29,26,86,,12,NE,2.3,,,,,50,2013-10-08 00:00:00
3:20 AM,28.4,26.6,93,30.39,-9999.0,NE,3.5,-,N/A,,Clear,50,2013-10-08 00:20:00
3:50 AM,28.4,24.8,86,30.42,-9999.0,Calm,Calm,-,N/A,,Clear,0,2013-10-08 00:50:00
4:20 AM,26.6,24.8,93,30.42,-9999.0,Calm,Calm,-,N/A,,Clear,0,2013-10-08 01:20:00
4:50 AM,26.6,24.8,93,30.42,-9999.0,NNE,2.3,-,N/A,,Clear,30,2013-10-08 01:50:00
5:20 AM,24.8,23.0,93,30.42,-9999.0,NNE,3.5,-,N/A,,Clear,20,2013-10-08 02:20:00
5:50 AM,24.8,23.0,93,30.42,-9999.0,NNE,1.2,-,N/A,,Clear,30,2013-10-08 02:50:00
6:20 AM,26.6,24.8,93,30.42,-9999.0,NE,1.2,-,N/A,,Clear,50,2013-10-08 03:20:00
6:50 AM,26.6,24.8,93,30.42,-9999.0,ENE,2.3,-,N/A,,Clear,60,2013-10-08 03:50:00
7:20 AM,28.4,24.8,86,30.42,-9999.0,NNE,3.5,-,N/A,,Clear,30,2013-10-08 04:20:00
7:50 AM,32.0,28.4,87,30.42,-9999.0,NE,3.5,-,N/A,,Clear,40,2013-10-08 04:50:00
8:20 AM,35.6,30.2,81,30.42,-9999.0,Variable,1.2,-,N/A,,Clear,0,2013-10-08 05:20:00
8:50 AM,37.4,30.2,75,30.42,-9999.0,Variable,2.3,-,N/A,,Clear,0,2013-10-08 05:50:00
9:00 AM,38,31,69,,12,NE,2.3,,,,,50,2013-10-08 06:00:00
9:20 AM,41.0,30.2,65,30.45,-9999.0,Variable,2.3,-,N/A,,Clear,0,2013-10-08 06:20:00
9:50 AM,44.6,30.2,57,30.45,-9999.0,Variable,1.2,-,N/A,,Clear,0,2013-10-08 06:50:00
10:20 AM,46.4,28.4,50,30.45,-9999.0,Variable,1.2,-,N/A,,Clear,0,2013-10-08 07:20:00
10:50 AM,48.2,26.6,43,30.45,-9999.0,Variable,1.2,-,N/A,,Clear,0,2013-10-08 07:50:00
11:20 AM,50.0,23.0,35,30.42,-9999.0,NE,2.3,-,N/A,,Clear,40,2013-10-08 08:20:00
11:50 AM,51.8,23.0,33,30.42,-9999.0,Variable,3.5,-,N/A,,Clear,0,2013-10-08 08:50:00
12:20 PM,51.8,17.6,26,30.42,-9999.0,Variable,3.5,-,N/A,,Clear,0,2013-10-08 09:20:00
12:50 PM,53.6,17.6,24,30.42,-9999.0,ENE,4.6,-,N/A,,Clear,70,2013-10-08 09:50:00
1:20 PM,53.6,17.6,24,30.39,-9999.0,Variable,2.3,-,N/A,,Clear,0,2013-10-08 10:20:00
1:50 PM,57.2,19.4,23,30.39,-9999.0,Variable,2.3,-,N/A,,Clear,0,2013-10-08 10:50:00
2:20 PM,57.2,17.6,21,30.36,-9999.0,Variable,1.2,-,N/A,,Clear,0,2013-10-08 11:20:00
2:50 PM,59.0,19.4,22,30.36,-9999.0,Variable,1.2,-,N/A,,Clear,0,2013-10-08 11:50:00
3:00 PM,58,19,12,,12,NNE,1.2,,,,,20,2013-10-08 12:00:00
3:20 PM,59.0,19.4,22,30.36,-9999.0,Variable,2.3,-,N/A,,Clear,0,2013-10-08 12:20:00
3:50 PM,60.8,19.4,20,30.36,-9999.0,Variable,2.3,-,N/A,,Clear,0,2013-10-08 12:50:00
4:20 PM,60.8,19.4,20,30.36,6.2,West,4.6,-,N/A,,Partly Cloudy,280,2013-10-08 13:20:00
4:50 PM,60.8,23.0,23,30.36,-9999.0,WNW,2.3,-,N/A,,Clear,290,2013-10-08 13:50:00
5:20 PM,59.0,23.0,25,30.36,-9999.0,North,3.5,-,N/A,,Clear,350,2013-10-08 14:20:00
5:50 PM,57.2,26.6,31,30.36,-9999.0,NW,4.6,-,N/A,,Clear,320,2013-10-08 14:50:00
6:20 PM,53.6,28.4,38,30.36,-9999.0,NW,6.9,-,N/A,,Clear,310,2013-10-08 15:20:00
6:50 PM,51.8,30.2,44,30.39,-9999.0,NW,4.6,-,N/A,,Clear,310,2013-10-08 15:50:00
7:20 PM,48.2,30.2,50,30.39,-9999.0,Calm,Calm,-,N/A,,Clear,0,2013-10-08 16:20:00
7:50 PM,44.6,32.0,61,30.39,-9999.0,SSE,2.3,-,N/A,,Clear,150,2013-10-08 16:50:00
8:20 PM,41.0,32.0,70,30.39,-9999.0,South,2.3,-,N/A,,Clear,170,2013-10-08 17:20:00
8:50 PM,42.8,30.2,61,30.39,-9999.0,South,3.5,-,N/A,,Clear,180,2013-10-08 17:50:00
9:00 PM,43,30,49,,12,South,3.5,,,,,180,2013-10-08 18:00:00
9:20 PM,39.2,30.2,70,30.39,-9999.0,Calm,Calm,-,N/A,,Clear,0,2013-10-08 18:20:00
9:50 PM,39.2,30.2,70,30.39,-9999.0,Calm,Calm,-,N/A,,Clear,0,2013-10-08 18:50:00
10:20 PM,37.4,32.0,81,30.39,-9999.0,ENE,3.5,-,N/A,,Clear,60,2013-10-08 19:20:00
10:50 PM,37.4,32.0,81,30.42,-9999.0,NNE,1.2,-,N/A,,Clear,20,2013-10-08 19:50:00
11:20 PM,35.6,30.2,81,30.39,-9999.0,NE,6.9,-,N/A,,Clear,40,2013-10-08 20:20:00
11:50 PM,35.6,30.2,81,30.39,-9999.0,NNE,3.5,-,N/A,,Clear,30,2013-10-08 20:50:00